This demonstration page uses our WeatherBlox Daily Observations layout. Learn more.

Left ArrowRight Arrow

41.12389, -100.76542

Hourly Observations for September 2, 2016

Temp ( °F °C ) Dew Point ( °F °C ) Humidity (%) Winds ( mph kmh ) Pressure ( in mb ) Visibility ( mi km ) Precip ( " mm )
12:53 am 00:53 Clear 63 17.2 54 12.2 73 73 SSE 12 19 30.11 1020 10 16 0.00 0.00
1:53 am 01:53 Clear 62 16.7 54 12.2 75 75 SE 7 11 30.11 1020 10 16 0.00 0.00
2:53 am 02:53 Clear 61 16.1 54 12.2 78 78 SSE 9 15 30.10 1019 10 16 0.00 0.00
3:53 am 03:53 Clear 60 15.6 54 12.2 80 80 SSE 7 11 30.09 1019 10 16 0.00 0.00
4:53 am 04:53 Clear 59 15 54 12.2 83 83 SSE 8 13 30.08 1019 10 16 0.00 0.00
5:53 am 05:53 Clear 59 15 54 12.2 83 83 SE 9 15 30.08 1019 10 16 0.00 0.00
6:53 am 06:53 Clear 60 15.6 54 12.2 80 80 SSE 9 15 30.07 1018 10 16 0.00 0.00
7:53 am 07:53 Partly Cloudy 61 16.1 55 12.8 81 81 SSE 10 17 30.08 1019 10 16 0.00 0.00
8:20 am 08:20 Mostly Cloudy 63 17 55 13 77 77 SE 15 24 30.06 1018 10 16 0.00 0.00
8:53 am 08:53 Cloudy 65 18.3 56 13.3 73 73 SE 12 19 30.08 1019 10 16 0.00 0.00
9:42 am 09:42 Cloudy 67 19.4 57 13.9 71 71 S 17 28 30.03 1017 10 16 0.00 0.00
9:53 am 09:53 Cloudy 66 18.9 56 13.3 70 70 SSE 17 28 30.09 1019 10 16 0.00 0.00
10:05 am 10:05 Cloudy 66 19 55 13 68 68 SSE 14 22 30.03 1017 10 16 0.00 0.00
10:40 am 10:40 Cloudy 67 19.4 56 13.3 68 68 SSE 17 28 30.06 1018 10 16 0.00 0.00
10:53 am 10:53 Cloudy 68 20 57 13.9 68 68 SSE 18 30 30.09 1019 10 16 0.00 0.00
11:53 am 11:53 Cloudy 69 20.6 58 14.4 68 68 SSE 14 22 30.08 1019 10 16 0.00 0.00
12:53 pm 12:53 Cloudy 76 24.4 59 15 56 56 SSE 17 28 30.05 1018 10 16 0.00 0.00
1:53 pm 13:53 Cloudy 74 23.3 59 15 60 60 S 16 26 30.03 1017 10 16 0.00 0.00
2:53 pm 14:53 Mostly Cloudy 78 25.6 59 15 52 52 SSE 15 24 30.01 1016 10 16 0.00 0.00
3:53 pm 15:53 Cloudy 76 24.4 59 15 56 56 SSE 12 19 29.99 1016 10 16 0.00 0.00
4:53 pm 16:53 Cloudy 78 25.6 59 15 52 52 SSE 16 26 29.96 1014 10 16 0.00 0.00
5:53 pm 17:53 Cloudy 75 23.9 59 15 58 58 SSE 10 17 29.94 1014 10 16 0.00 0.00
6:53 pm 18:53 Partly Cloudy 74 23.3 59 15 60 60 SE 10 17 29.94 1014 10 16 0.00 0.00
7:53 pm 19:53 Sunny 72 22.2 59 15 64 64 SE 9 15 29.93 1014 10 16 0.00 0.00
8:53 pm 20:53 Mostly Clear 71 21.7 55 12.8 57 57 SE 10 17 29.95 1014 10 16 0.00 0.00
9:53 pm 21:53 Cloudy with Light Rain 71 21.7 55 12.8 57 57 SSE 29 46 29.87 1012 10 16 0.00 0.03
10:53 pm 22:53 Mostly Cloudy with Light Rain 66 18.9 57 13.9 73 73 SSE 22 35 29.90 1012 10 16 0.01 0.25
11:53 pm 23:53 Clear 67 19.4 57 13.9 71 71 SSE 14 22 29.92 1013 10 16 0.00 0.03

Powered by AerisWeather